Time,TemperatureF,DewpointF,PressureIn,WindDirection,WindDirectionDegrees,WindSpeedMPH,WindSpeedGustMPH,Humidity,HourlyPrecipIn,Conditions,Clouds,dailyrainin,SoftwareType,DateUTC
2013-08-31 00:00:00,69.4,68.6,29.77,SSW,197,0.0,0.0,97,0.00,,---,0.00,VWS V14.01,2013-08-31 04:00:00,
2013-08-31 00:01:00,69.4,69.4,29.77,SSW,212,2.7,5.4,100,0.00,,---,0.00,VWS V14.01,2013-08-31 04:01:00,
2013-08-31 00:05:00,69.6,69.0,29.77,SSW,197,0.0,0.0,98,0.00,,---,0.00,VWS V14.01,2013-08-31 04:05:00,
2013-08-31 00:10:00,69.4,69.2,29.77,SSW,197,0.0,0.0,99,0.00,,---,0.00,VWS V14.01,2013-08-31 04:10:00,
2013-08-31 00:11:00,70.5,70.5,29.77,SW,214,1.8,2.7,100,0.00,,---,0.00,VWS V14.01,2013-08-31 04:11:00,
2013-08-31 00:15:00,69.4,69.4,29.77,SSW,197,2.2,3.6,100,0.00,,---,0.00,VWS V14.01,2013-08-31 04:15:00,
2013-08-31 00:16:00,71.1,69.9,29.77,SSW,208,1.8,3.1,96,0.00,,---,0.00,VWS V14.01,2013-08-31 04:16:00,
2013-08-31 00:20:00,69.8,69.8,29.77,SSW,197,2.7,3.1,100,0.00,,---,0.00,VWS V14.01,2013-08-31 04:20:00,
2013-08-31 00:25:00,70.3,70.3,29.77,SSW,204,4.9,5.8,100,0.00,,---,0.00,VWS V14.01,2013-08-31 04:25:00,
2013-08-31 00:26:00,70.3,70.3,29.77,SW,214,0.0,0.0,100,0.00,,---,0.00,VWS V14.01,2013-08-31 04:26:00,
2013-08-31 00:30:00,70.3,70.3,29.77,SSW,212,3.1,6.7,100,0.00,,---,0.00,VWS V14.01,2013-08-31 04:30:00,
2013-08-31 00:35:00,70.0,70.0,29.77,SSW,212,4.0,5.8,100,0.00,,---,0.00,VWS V14.01,2013-08-31 04:35:00,
2013-08-31 00:36:00,69.4,69.4,29.77,SSW,212,0.0,0.0,100,0.00,,---,0.00,VWS V14.01,2013-08-31 04:36:00,
2013-08-31 00:40:00,69.8,69.8,29.77,SSW,212,4.9,5.8,100,0.00,,---,0.00,VWS V14.01,2013-08-31 04:40:00,
2013-08-31 00:41:00,69.1,69.1,29.77,SW,214,0.0,0.0,100,0.00,,---,0.00,VWS V14.01,2013-08-31 04:41:00,
2013-08-31 00:45:00,69.6,69.6,29.77,SSW,212,4.9,4.9,100,0.00,,---,0.00,VWS V14.01,2013-08-31 04:45:00,
2013-08-31 00:50:00,69.4,69.4,29.77,SSW,212,3.6,4.9,100,0.00,,---,0.00,VWS V14.01,2013-08-31 04:50:00,
2013-08-31 00:51:00,68.5,68.5,29.77,SSW,208,0.0,0.0,100,0.00,,---,0.00,VWS V14.01,2013-08-31 04:51:00,
2013-08-31 00:55:00,69.3,69.3,29.77,SSW,212,3.6,4.5,100,0.00,,---,0.00,VWS V14.01,2013-08-31 04:55:00,
2013-08-31 00:56:00,68.5,68.5,29.77,SSW,212,0.0,0.0,100,0.00,,---,0.00,VWS V14.01,2013-08-31 04:56:00,
2013-08-31 01:00:00,69.4,69.4,29.77,SSW,212,2.7,5.4,100,0.00,,---,0.00,VWS V14.01,2013-08-31 05:00:00,
2013-08-31 01:05:00,70.2,70.2,29.77,SSW,212,0.0,3.6,100,0.00,,---,0.00,VWS V14.01,2013-08-31 05:05:00,
2013-08-31 01:06:00,68.7,68.7,29.77,SSW,212,1.8,2.2,100,0.00,,---,0.00,VWS V14.01,2013-08-31 05:06:00,
2013-08-31 01:10:00,70.5,70.5,29.77,SW,214,1.8,2.7,100,0.00,,---,0.00,VWS V14.01,2013-08-31 05:10:00,
2013-08-31 01:11:00,68.9,68.9,29.77,SSW,212,0.9,3.1,100,0.00,,---,0.00,VWS V14.01,2013-08-31 05:11:00,
2013-08-31 01:15:00,71.1,69.9,29.77,SSW,208,1.8,3.1,96,0.00,,---,0.00,VWS V14.01,2013-08-31 05:15:00,
2013-08-31 01:20:00,71.1,70.2,29.77,SW,214,0.0,3.1,97,0.00,,---,0.00,VWS V14.01,2013-08-31 05:20:00,
2013-08-31 01:21:00,69.3,69.3,29.74,SW,214,5.4,6.3,100,0.00,,---,0.00,VWS V14.01,2013-08-31 05:21:00,
2013-08-31 01:25:00,70.3,70.3,29.77,SW,214,0.0,0.0,100,0.00,,---,0.00,VWS V14.01,2013-08-31 05:25:00,
2013-08-31 01:26:00,70.2,70.2,29.74,SW,218,4.5,8.5,100,0.00,,---,0.00,VWS V14.01,2013-08-31 05:26:00,
2013-08-31 01:30:00,69.8,69.8,29.77,SW,214,0.0,0.0,100,0.00,,---,0.00,VWS V14.01,2013-08-31 05:30:00,
2013-08-31 01:35:00,69.4,69.4,29.77,SSW,212,0.0,0.0,100,0.00,,---,0.00,VWS V14.01,2013-08-31 05:35:00,
2013-08-31 01:36:00,70.0,69.4,29.74,SW,218,6.3,7.6,98,0.00,,---,0.00,VWS V14.01,2013-08-31 05:36:00,
2013-08-31 01:40:00,69.1,69.1,29.77,SW,214,0.0,0.0,100,0.00,,---,0.00,VWS V14.01,2013-08-31 05:40:00,
2013-08-31 01:41:00,70.7,68.3,29.74,SW,219,4.0,6.7,92,0.00,,---,0.00,VWS V14.01,2013-08-31 05:41:00,
2013-08-31 01:45:00,68.9,68.9,29.77,SW,214,0.0,0.0,100,0.00,,---,0.00,VWS V14.01,2013-08-31 05:45:00,
2013-08-31 01:50:00,68.5,68.6,29.77,SSW,208,0.0,0.0,100,0.00,,---,0.00,VWS V14.01,2013-08-31 05:50:00,
2013-08-31 01:51:00,71.6,67.9,29.74,SW,223,5.4,8.1,88,0.00,,---,0.00,VWS V14.01,2013-08-31 05:51:00,
2013-08-31 01:55:00,68.5,68.6,29.77,SSW,212,0.0,0.0,100,0.00,,---,0.00,VWS V14.01,2013-08-31 05:55:00,
2013-08-31 01:56:00,71.1,68.0,29.74,SW,223,4.0,6.3,90,0.00,,---,0.00,VWS V14.01,2013-08-31 05:56:00,
2013-08-31 02:00:00,68.5,68.6,29.77,SSW,212,0.0,0.0,100,0.00,,---,0.00,VWS V14.01,2013-08-31 06:00:00,
2013-08-31 02:05:00,68.7,68.7,29.77,SSW,212,1.8,2.2,100,0.00,,---,0.00,VWS V14.01,2013-08-31 06:05:00,
2013-08-31 02:06:00,70.2,68.4,29.74,SW,225,3.6,5.4,94,0.00,,---,0.00,VWS V14.01,2013-08-31 06:06:00,
2013-08-31 02:10:00,68.9,68.9,29.77,SSW,212,0.9,3.1,100,0.00,,---,0.00,VWS V14.01,2013-08-31 06:10:00,
2013-08-31 02:11:00,70.0,68.5,29.74,SW,223,3.6,5.8,95,0.00,,---,0.00,VWS V14.01,2013-08-31 06:11:00,
2013-08-31 02:15:00,68.9,68.9,29.74,SSW,212,4.0,4.0,100,0.00,,---,0.00,VWS V14.01,2013-08-31 06:15:00,
2013-08-31 02:20:00,69.3,69.3,29.74,SW,214,5.4,6.3,100,0.00,,---,0.00,VWS V14.01,2013-08-31 06:20:00,
2013-08-31 02:21:00,69.8,69.8,29.74,SW,223,0.9,5.4,100,0.00,,---,0.00,VWS V14.01,2013-08-31 06:21:00,
2013-08-31 02:25:00,70.2,70.2,29.74,SW,218,4.5,8.5,100,0.00,,---,0.00,VWS V14.01,2013-08-31 06:25:00,
2013-08-31 02:26:00,69.1,69.1,29.74,SW,223,4.0,4.5,100,0.00,,---,0.00,VWS V14.01,2013-08-31 06:26:00,
2013-08-31 02:30:00,70.0,70.0,29.74,SW,218,5.4,6.3,100,0.00,,---,0.00,VWS V14.01,2013-08-31 06:30:00,
2013-08-31 02:35:00,70.0,69.4,29.74,SW,218,6.3,7.6,98,0.00,,---,0.00,VWS V14.01,2013-08-31 06:35:00,
2013-08-31 02:36:00,68.2,68.2,29.74,SSW,192,9.8,9.8,100,0.00,,---,0.00,VWS V14.01,2013-08-31 06:36:00,
2013-08-31 02:40:00,70.7,68.3,29.74,SW,219,4.0,6.7,92,0.00,,---,0.00,VWS V14.01,2013-08-31 06:40:00,
2013-08-31 02:41:00,68.0,68.0,29.74,SSW,205,2.7,9.8,100,0.00,,---,0.00,VWS V14.01,2013-08-31 06:41:00,
2013-08-31 02:45:00,71.4,67.7,29.74,SW,225,8.1,8.1,88,0.00,,---,0.00,VWS V14.01,2013-08-31 06:45:00,
2013-08-31 02:50:00,71.6,67.9,29.74,SW,223,5.4,8.1,88,0.00,,---,0.00,VWS V14.01,2013-08-31 06:50:00,
2013-08-31 02:51:00,68.9,68.9,29.74,SSW,212,8.5,11.6,100,0.00,,---,0.00,VWS V14.01,2013-08-31 06:51:00,
2013-08-31 02:55:00,71.1,68.0,29.74,SW,223,4.0,6.3,90,0.00,,---,0.00,VWS V14.01,2013-08-31 06:55:00,
2013-08-31 03:00:00,70.3,67.9,29.74,SW,223,3.1,4.9,92,0.00,,---,0.00,VWS V14.01,2013-08-31 07:00:00,
2013-08-31 03:01:00,70.2,70.2,29.74,SW,218,5.8,10.3,100,0.00,,---,0.00,VWS V14.01,2013-08-31 07:01:00,
2013-08-31 03:05:00,70.2,68.4,29.74,SW,225,3.6,5.4,94,0.00,,---,0.00,VWS V14.01,2013-08-31 07:05:00,
2013-08-31 03:06:00,70.2,69.9,29.74,SW,214,5.4,9.4,99,0.00,,---,0.00,VWS V14.01,2013-08-31 07:06:00,
2013-08-31 03:10:00,70.0,68.5,29.74,SW,223,3.6,5.8,95,0.00,,---,0.00,VWS V14.01,2013-08-31 07:10:00,
2013-08-31 03:11:00,70.2,69.6,29.74,SSW,212,6.3,8.1,98,0.00,,---,0.00,VWS V14.01,2013-08-31 07:11:00,
2013-08-31 03:15:00,70.0,68.5,29.74,SW,223,5.4,5.4,95,0.00,,---,0.00,VWS V14.01,2013-08-31 07:15:00,
2013-08-31 03:16:00,70.0,69.7,29.74,SSW,207,8.5,10.3,99,0.00,,---,0.00,VWS V14.01,2013-08-31 07:16:00,
2013-08-31 03:20:00,69.8,69.8,29.74,SW,223,0.9,5.4,100,0.00,,---,0.00,VWS V14.01,2013-08-31 07:20:00,
2013-08-31 03:21:00,69.8,69.8,29.74,SSW,204,4.5,8.5,100,0.00,,---,0.00,VWS V14.01,2013-08-31 07:21:00,
2013-08-31 03:25:00,69.1,69.1,29.74,SW,223,4.0,4.5,100,0.00,,---,0.00,VWS V14.01,2013-08-31 07:25:00,
2013-08-31 03:30:00,68.5,68.6,29.74,SSW,200,8.1,8.1,100,0.00,,---,0.00,VWS V14.01,2013-08-31 07:30:00,
2013-08-31 03:31:00,69.4,69.4,29.74,SSW,205,3.6,9.4,100,0.00,,---,0.00,VWS V14.01,2013-08-31 07:31:00,
2013-08-31 03:35:00,68.2,68.2,29.74,SSW,192,9.8,9.8,100,0.00,,---,0.00,VWS V14.01,2013-08-31 07:35:00,
2013-08-31 03:36:00,69.6,69.6,29.74,SSW,202,4.5,5.8,100,0.00,,---,0.00,VWS V14.01,2013-08-31 07:36:00,
2013-08-31 03:40:00,68.0,68.0,29.74,SSW,205,2.7,9.8,100,0.00,,---,0.00,VWS V14.01,2013-08-31 07:40:00,
2013-08-31 03:45:00,68.2,68.2,29.74,SW,221,3.1,6.7,100,0.00,,---,0.00,VWS V14.01,2013-08-31 07:45:00,
2013-08-31 03:46:00,69.3,69.3,29.74,SSW,201,2.2,5.8,100,0.00,,---,0.00,VWS V14.01,2013-08-31 07:46:00,
2013-08-31 03:50:00,68.9,68.9,29.74,SSW,212,8.5,11.6,100,0.00,,---,0.00,VWS V14.01,2013-08-31 07:50:00,
2013-08-31 03:51:00,69.3,69.3,29.74,SSW,208,8.5,10.3,100,0.00,,---,0.00,VWS V14.01,2013-08-31 07:51:00,
2013-08-31 03:55:00,69.6,69.6,29.74,SW,214,8.1,12.5,100,0.00,,---,0.00,VWS V14.01,2013-08-31 07:55:00,
2013-08-31 03:56:00,69.6,69.6,29.74,SSW,194,6.3,10.3,100,0.00,,---,0.00,VWS V14.01,2013-08-31 07:56:00,
2013-08-31 04:00:00,70.2,70.2,29.74,SW,218,5.8,10.3,100,0.00,,---,0.00,VWS V14.01,2013-08-31 08:00:00,
2013-08-31 04:05:00,70.2,69.9,29.74,SW,214,5.4,9.4,99,0.00,,---,0.00,VWS V14.01,2013-08-31 08:05:00,
2013-08-31 04:06:00,69.8,69.8,29.74,South,180,3.6,6.3,100,0.00,,---,0.00,VWS V14.01,2013-08-31 08:06:00,
2013-08-31 04:10:00,70.2,69.6,29.74,SSW,212,6.3,8.1,98,0.00,,---,0.00,VWS V14.01,2013-08-31 08:10:00,
2013-08-31 04:15:00,70.0,69.7,29.74,SSW,207,8.5,10.3,99,0.00,,---,0.00,VWS V14.01,2013-08-31 08:15:00,
2013-08-31 04:16:00,69.8,69.8,29.74,South,177,4.5,4.5,100,0.00,,---,0.00,VWS V14.01,2013-08-31 08:16:00,
2013-08-31 04:20:00,69.8,69.8,29.74,SSW,204,4.5,8.5,100,0.00,,---,0.00,VWS V14.01,2013-08-31 08:20:00,
2013-08-31 04:21:00,69.4,69.4,29.74,South,177,3.1,4.5,100,0.00,,---,0.00,VWS V14.01,2013-08-31 08:21:00,
2013-08-31 04:25:00,69.3,69.3,29.74,SSW,204,4.9,4.9,100,0.00,,---,0.00,VWS V14.01,2013-08-31 08:25:00,
2013-08-31 04:26:00,69.4,69.4,29.74,South,174,0.0,3.1,100,0.00,,---,0.00,VWS V14.01,2013-08-31 08:26:00,
2013-08-31 04:30:00,69.4,69.4,29.74,SSW,205,3.6,9.4,100,0.00,,---,0.00,VWS V14.01,2013-08-31 08:30:00,
2013-08-31 04:35:00,69.6,69.6,29.74,SSW,202,4.5,5.8,100,0.00,,---,0.00,VWS V14.01,2013-08-31 08:35:00,
2013-08-31 04:36:00,69.1,69.1,29.71,ESE,108,4.0,4.0,100,0.00,,---,0.00,VWS V14.01,2013-08-31 08:36:00,
2013-08-31 04:40:00,69.3,69.3,29.74,SSW,202,4.5,6.3,100,0.00,,---,0.00,VWS V14.01,2013-08-31 08:40:00,
2013-08-31 04:45:00,69.3,69.3,29.74,SSW,201,2.2,5.8,100,0.00,,---,0.00,VWS V14.01,2013-08-31 08:45:00,
2013-08-31 04:46:00,69.1,69.1,29.74,NNW,329,5.8,6.7,100,0.00,,---,0.00,VWS V14.01,2013-08-31 08:46:00,
2013-08-31 04:50:00,69.3,69.3,29.74,SSW,208,8.5,10.3,100,0.00,,---,0.00,VWS V14.01,2013-08-31 08:50:00,
2013-08-31 04:55:00,69.6,69.6,29.74,SSW,194,6.3,10.3,100,0.00,,---,0.00,VWS V14.01,2013-08-31 08:55:00,
2013-08-31 04:56:00,69.1,69.1,29.74,NNW,328,0.0,0.4,100,0.00,,---,0.00,VWS V14.01,2013-08-31 08:56:00,
2013-08-31 05:00:00,69.6,69.6,29.74,SSW,202,4.9,7.6,100,0.00,,---,0.00,VWS V14.01,2013-08-31 09:00:00,
2013-08-31 05:01:00,68.9,68.9,29.74,South,180,3.6,4.9,100,0.00,,---,0.00,VWS V14.01,2013-08-31 09:01:00,
2013-08-31 05:05:00,69.8,69.8,29.74,South,180,3.6,6.3,100,0.00,,---,0.00,VWS V14.01,2013-08-31 09:05:00,
2013-08-31 05:10:00,69.8,69.8,29.74,South,181,3.6,7.2,100,0.00,,---,0.00,VWS V14.01,2013-08-31 09:10:00,
2013-08-31 05:11:00,68.9,68.9,29.74,SW,219,2.7,4.5,100,0.00,,---,0.00,VWS V14.01,2013-08-31 09:11:00,
2013-08-31 05:15:00,69.8,69.8,29.74,South,177,4.5,4.5,100,0.00,,---,0.00,VWS V14.01,2013-08-31 09:15:00,
2013-08-31 05:16:00,68.7,68.7,29.74,SW,219,3.6,4.5,100,0.00,,---,0.00,VWS V14.01,2013-08-31 09:16:00,
2013-08-31 05:20:00,69.4,69.4,29.74,South,177,3.1,4.5,100,0.00,,---,0.00,VWS V14.01,2013-08-31 09:20:00,
2013-08-31 05:25:00,69.4,69.4,29.74,South,174,0.0,3.1,100,0.00,,---,0.00,VWS V14.01,2013-08-31 09:25:00,
2013-08-31 05:26:00,68.7,68.7,29.74,SSW,205,4.9,6.7,100,0.00,,---,0.00,VWS V14.01,2013-08-31 09:26:00,
2013-08-31 05:30:00,69.3,69.3,29.71,South,177,0.0,0.0,100,0.00,,---,0.00,VWS V14.01,2013-08-31 09:30:00,
2013-08-31 05:31:00,68.9,68.9,29.74,SSW,212,6.3,7.2,100,0.00,,---,0.00,VWS V14.01,2013-08-31 09:31:00,
2013-08-31 05:35:00,69.1,69.1,29.71,ESE,108,4.0,4.0,100,0.00,,---,0.00,VWS V14.01,2013-08-31 09:35:00,
2013-08-31 05:40:00,69.1,69.1,29.71,North,360,6.7,8.5,100,0.00,,---,0.00,VWS V14.01,2013-08-31 09:40:00,
2013-08-31 05:41:00,68.7,68.7,29.74,SSW,202,4.9,7.2,100,0.00,,---,0.00,VWS V14.01,2013-08-31 09:41:00,
2013-08-31 05:45:00,69.1,69.1,29.74,NNW,329,5.8,6.7,100,0.00,,---,0.00,VWS V14.01,2013-08-31 09:45:00,
2013-08-31 05:46:00,68.7,68.7,29.74,SW,214,5.4,6.3,100,0.00,,---,0.00,VWS V14.01,2013-08-31 09:46:00,
2013-08-31 05:50:00,69.1,69.1,29.74,NNW,329,0.0,6.3,100,0.00,,---,0.00,VWS V14.01,2013-08-31 09:50:00,
2013-08-31 05:55:00,69.1,69.1,29.74,NNW,328,0.0,0.4,100,0.00,,---,0.00,VWS V14.01,2013-08-31 09:55:00,
2013-08-31 05:56:00,68.7,68.7,29.74,SW,225,4.5,4.9,100,0.00,,---,0.00,VWS V14.01,2013-08-31 09:56:00,
2013-08-31 06:00:00,68.9,68.9,29.74,South,180,3.6,4.9,100,0.00,,---,0.00,VWS V14.01,2013-08-31 10:00:00,
2013-08-31 06:01:00,68.7,68.7,29.74,SW,226,2.7,4.9,100,0.00,,---,0.00,VWS V14.01,2013-08-31 10:01:00,
2013-08-31 06:05:00,68.9,68.9,29.74,SW,218,2.2,4.5,100,0.00,,---,0.00,VWS V14.01,2013-08-31 10:05:00,
2013-08-31 06:10:00,68.9,68.9,29.74,SW,219,2.7,4.5,100,0.00,,---,0.00,VWS V14.01,2013-08-31 10:10:00,
2013-08-31 06:11:00,68.5,68.5,29.74,SW,225,3.1,4.0,100,0.00,,---,0.00,VWS V14.01,2013-08-31 10:11:00,
2013-08-31 06:15:00,68.7,68.7,29.74,SW,219,3.6,4.5,100,0.00,,---,0.00,VWS V14.01,2013-08-31 10:15:00,
2013-08-31 06:16:00,68.5,68.5,29.74,SW,225,4.5,6.3,100,0.00,,---,0.00,VWS V14.01,2013-08-31 10:16:00,
2013-08-31 06:20:00,68.7,68.7,29.74,SW,216,4.0,5.4,100,0.00,,---,0.00,VWS V14.01,2013-08-31 10:20:00,
2013-08-31 06:25:00,68.7,68.7,29.74,SSW,205,4.9,6.7,100,0.00,,---,0.00,VWS V14.01,2013-08-31 10:25:00,
2013-08-31 06:26:00,68.5,68.5,29.74,SW,225,0.4,2.7,100,0.00,,---,0.00,VWS V14.01,2013-08-31 10:26:00,
2013-08-31 06:30:00,68.9,68.9,29.74,SSW,212,6.3,7.2,100,0.00,,---,0.00,VWS V14.01,2013-08-31 10:30:00,
2013-08-31 06:36:00,68.5,68.5,29.74,SW,225,1.3,3.6,100,0.00,,---,0.00,VWS V14.01,2013-08-31 10:36:00,
2013-08-31 06:40:00,68.7,68.7,29.74,SSW,202,4.9,7.2,100,0.00,,---,0.00,VWS V14.01,2013-08-31 10:40:00,
2013-08-31 06:41:00,68.5,68.5,29.74,SW,223,4.5,5.4,100,0.00,,---,0.00,VWS V14.01,2013-08-31 10:41:00,
2013-08-31 06:45:00,68.7,68.7,29.74,SW,214,5.4,6.3,100,0.00,,---,0.00,VWS V14.01,2013-08-31 10:45:00,
2013-08-31 06:50:00,68.7,68.7,29.74,SW,223,4.5,5.4,100,0.00,,---,0.00,VWS V14.01,2013-08-31 10:50:00,
2013-08-31 06:51:00,68.5,68.5,29.74,South,183,2.2,4.0,100,0.00,,---,0.00,VWS V14.01,2013-08-31 10:51:00,
2013-08-31 06:55:00,68.7,68.7,29.74,SW,225,4.5,4.9,100,0.00,,---,0.00,VWS V14.01,2013-08-31 10:55:00,
2013-08-31 06:56:00,68.5,68.5,29.74,South,178,4.0,4.5,100,0.00,,---,0.00,VWS V14.01,2013-08-31 10:56:00,
2013-08-31 07:00:00,68.7,68.7,29.74,SW,226,2.7,4.9,100,0.00,,---,0.00,VWS V14.01,2013-08-31 11:00:00,
2013-08-31 07:01:00,68.5,68.5,29.74,South,178,3.1,5.4,100,0.00,,---,0.00,VWS V14.01,2013-08-31 11:01:00,
2013-08-31 07:05:00,68.7,68.7,29.74,SW,226,2.7,5.4,100,0.00,,---,0.00,VWS V14.01,2013-08-31 11:05:00,
2013-08-31 07:06:00,68.5,68.5,29.74,SSE,167,2.7,6.3,100,0.00,,---,0.00,VWS V14.01,2013-08-31 11:06:00,
2013-08-31 07:10:00,68.5,68.6,29.74,SW,225,3.1,4.0,100,0.00,,---,0.00,VWS V14.01,2013-08-31 11:10:00,
2013-08-31 07:11:00,68.5,68.5,29.74,SSE,152,4.0,7.6,100,0.00,,---,0.00,VWS V14.01,2013-08-31 11:11:00,
2013-08-31 07:15:00,68.5,68.6,29.74,SW,225,4.5,6.3,100,0.00,,---,0.00,VWS V14.01,2013-08-31 11:15:00,
2013-08-31 07:20:00,68.5,68.6,29.74,SW,225,2.2,4.9,100,0.00,,---,0.00,VWS V14.01,2013-08-31 11:20:00,
2013-08-31 07:21:00,68.7,68.7,29.74,SSE,166,2.2,5.8,100,0.00,,---,0.00,VWS V14.01,2013-08-31 11:21:00,
2013-08-31 07:25:00,68.5,68.6,29.74,SW,225,0.4,2.7,100,0.00,,---,0.00,VWS V14.01,2013-08-31 11:25:00,
2013-08-31 07:26:00,68.7,68.7,29.74,SSE,167,2.2,4.9,100,0.00,,---,0.00,VWS V14.01,2013-08-31 11:26:00,
2013-08-31 07:30:00,68.4,68.4,29.74,SW,225,3.1,3.6,100,0.00,,---,0.00,VWS V14.01,2013-08-31 11:30:00,
2013-08-31 07:35:00,68.5,68.6,29.74,SW,225,1.3,3.6,100,0.00,,---,0.00,VWS V14.01,2013-08-31 11:35:00,
2013-08-31 07:36:00,68.9,68.9,29.74,SSE,167,1.3,2.7,100,0.00,,---,0.00,VWS V14.01,2013-08-31 11:36:00,
2013-08-31 07:40:00,68.5,68.6,29.74,SW,223,4.5,5.4,100,0.00,,---,0.00,VWS V14.01,2013-08-31 11:40:00,
2013-08-31 07:41:00,68.9,68.9,29.74,SSE,167,1.8,3.6,100,0.00,,---,0.00,VWS V14.01,2013-08-31 11:41:00,
2013-08-31 07:45:00,68.5,68.6,29.74,South,190,1.8,4.9,100,0.00,,---,0.00,VWS V14.01,2013-08-31 11:45:00,
2013-08-31 07:46:00,68.9,68.9,29.74,SSE,167,1.8,3.6,100,0.00,,---,0.00,VWS V14.01,2013-08-31 11:46:00,
2013-08-31 07:50:00,68.5,68.6,29.74,South,183,2.2,4.0,100,0.00,,---,0.00,VWS V14.01,2013-08-31 11:50:00,
2013-08-31 07:51:00,69.1,69.1,29.74,SSE,167,1.3,3.6,100,0.00,,---,0.00,VWS V14.01,2013-08-31 11:51:00,
2013-08-31 07:55:00,68.5,68.6,29.74,South,178,4.0,4.5,100,0.00,,---,0.00,VWS V14.01,2013-08-31 11:55:00,
2013-08-31 07:56:00,69.1,69.1,29.74,SSE,167,1.3,4.0,100,0.00,,---,0.00,VWS V14.01,2013-08-31 11:56:00,
2013-08-31 08:00:00,68.5,68.6,29.74,South,178,3.1,5.4,100,0.00,,---,0.00,VWS V14.01,2013-08-31 12:00:00,
2013-08-31 08:05:00,68.5,68.6,29.74,SSE,167,2.7,6.3,100,0.00,,---,0.00,VWS V14.01,2013-08-31 12:05:00,
2013-08-31 08:06:00,69.1,69.1,29.74,SSE,167,2.2,3.6,100,0.00,,---,0.00,VWS V14.01,2013-08-31 12:06:00,
2013-08-31 08:10:00,68.5,68.6,29.74,SSE,152,4.0,7.6,100,0.00,,---,0.00,VWS V14.01,2013-08-31 12:10:00,
2013-08-31 08:11:00,69.3,69.3,29.74,SSE,167,0.0,3.6,100,0.00,,---,0.00,VWS V14.01,2013-08-31 12:11:00,
2013-08-31 08:15:00,68.7,68.7,29.74,SSE,159,2.7,6.7,100,0.00,,---,0.00,VWS V14.01,2013-08-31 12:15:00,
2013-08-31 08:20:00,68.7,68.7,29.74,SSE,166,2.2,5.8,100,0.00,,---,0.00,VWS V14.01,2013-08-31 12:20:00,
2013-08-31 08:25:00,68.7,68.7,29.74,SSE,167,2.2,4.9,100,0.00,,---,0.00,VWS V14.01,2013-08-31 12:25:00,
2013-08-31 08:26:00,69.1,69.1,29.74,SSE,167,3.1,4.0,100,0.00,,---,0.00,VWS V14.01,2013-08-31 12:26:00,
2013-08-31 08:30:00,68.9,68.9,29.74,SSE,167,2.7,4.5,100,0.00,,---,0.00,VWS V14.01,2013-08-31 12:30:00,
2013-08-31 08:35:00,68.9,68.9,29.74,SSE,167,1.3,2.7,100,0.00,,---,0.00,VWS V14.01,2013-08-31 12:35:00,
2013-08-31 08:40:00,68.9,68.9,29.74,SSE,167,1.8,3.6,100,0.00,,---,0.00,VWS V14.01,2013-08-31 12:40:00,
2013-08-31 08:45:00,68.9,68.9,29.74,SSE,167,1.8,3.6,100,0.00,,---,0.00,VWS V14.01,2013-08-31 12:45:00,
2013-08-31 08:50:00,69.1,69.1,29.74,SSE,167,1.3,3.6,100,0.00,,---,0.00,VWS V14.01,2013-08-31 12:50:00,
2013-08-31 08:55:00,69.1,69.1,29.74,SSE,167,1.3,4.0,100,0.00,,---,0.00,VWS V14.01,2013-08-31 12:55:00,
2013-08-31 08:56:00,69.6,69.6,29.77,South,171,0.4,3.6,100,0.00,,---,0.00,VWS V14.01,2013-08-31 12:56:00,
2013-08-31 09:00:00,69.1,69.1,29.74,SSE,167,3.1,3.1,100,0.00,,---,0.00,VWS V14.01,2013-08-31 13:00:00,
2013-08-31 09:05:00,69.1,69.1,29.74,SSE,167,2.2,3.6,100,0.00,,---,0.00,VWS V14.01,2013-08-31 13:05:00,
2013-08-31 09:06:00,70.2,70.2,29.77,South,185,4.9,5.4,100,0.00,,---,0.00,VWS V14.01,2013-08-31 13:06:00,
2013-08-31 09:10:00,69.3,69.3,29.74,SSE,167,0.0,3.6,100,0.00,,---,0.00,VWS V14.01,2013-08-31 13:10:00,
2013-08-31 09:15:00,69.1,69.1,29.74,SSE,167,2.2,3.1,100,0.00,,---,0.00,VWS V14.01,2013-08-31 13:15:00,
2013-08-31 09:16:00,70.9,70.9,29.77,SSW,207,4.5,6.3,100,0.00,,---,0.00,VWS V14.01,2013-08-31 13:16:00,
2013-08-31 09:20:00,69.1,69.1,29.74,SSE,167,0.9,4.5,100,0.00,,---,0.00,VWS V14.01,2013-08-31 13:20:00,
2013-08-31 09:21:00,71.1,71.1,29.77,SSW,202,8.1,11.2,100,0.00,,---,0.00,VWS V14.01,2013-08-31 13:21:00,
2013-08-31 09:25:00,69.1,69.1,29.74,SSE,167,3.1,4.0,100,0.00,,---,0.00,VWS V14.01,2013-08-31 13:25:00,
2013-08-31 09:30:00,70.9,70.9,29.77,SSW,211,8.1,9.8,100,0.00,,---,0.00,VWS V14.01,2013-08-31 13:30:00,
2013-08-31 09:35:00,70.9,70.9,29.77,SSW,212,6.3,10.3,100,0.00,,---,0.00,VWS V14.01,2013-08-31 13:35:00,
2013-08-31 09:40:00,71.8,71.8,29.77,SW,221,6.7,10.3,100,0.00,,---,0.00,VWS V14.01,2013-08-31 13:40:00,
2013-08-31 09:45:00,69.3,69.3,29.77,South,171,3.1,3.6,100,0.00,,---,0.00,VWS V14.01,2013-08-31 13:45:00,
2013-08-31 09:50:00,73.2,73.2,29.77,SSW,209,11.2,13.4,100,0.00,,---,0.00,VWS V14.01,2013-08-31 13:50:00,
2013-08-31 09:55:00,72.9,72.9,29.77,SSW,207,8.9,13.4,100,0.00,,---,0.00,VWS V14.01,2013-08-31 13:55:00,
2013-08-31 10:00:00,70.0,70.0,29.77,South,171,0.0,2.7,100,0.00,,---,0.00,VWS V14.01,2013-08-31 14:00:00,
2013-08-31 10:05:00,73.9,73.9,29.77,SSW,205,10.7,15.7,100,0.00,,---,0.00,VWS V14.01,2013-08-31 14:05:00,
2013-08-31 10:10:00,73.8,73.2,29.77,SW,214,7.6,14.8,98,0.00,,---,0.00,VWS V14.01,2013-08-31 14:10:00,
2013-08-31 10:15:00,70.9,70.9,29.77,SSW,207,4.5,6.3,100,0.00,,---,0.00,VWS V14.01,2013-08-31 14:15:00,
2013-08-31 10:20:00,73.0,73.1,29.77,SW,214,9.8,13.0,100,0.00,,---,0.00,VWS V14.01,2013-08-31 14:20:00,
2013-08-31 10:25:00,73.0,73.1,29.77,SSW,208,7.6,12.1,100,0.00,,---,0.00,VWS V14.01,2013-08-31 14:25:00,
2013-08-31 10:30:00,70.9,70.9,29.77,SSW,211,8.1,9.8,100,0.00,,---,0.00,VWS V14.01,2013-08-31 14:30:00,
2013-08-31 10:35:00,74.1,74.1,29.77,SSW,209,7.2,8.5,100,0.00,,---,0.00,VWS V14.01,2013-08-31 14:35:00,
2013-08-31 10:40:00,75.2,74.0,29.77,SW,219,7.2,8.9,96,0.00,,---,0.00,VWS V14.01,2013-08-31 14:40:00,
2013-08-31 10:45:00,73.0,73.1,29.77,SSW,207,11.6,13.0,100,0.00,,---,0.00,VWS V14.01,2013-08-31 14:45:00,
2013-08-31 10:50:00,76.6,71.8,29.77,SSW,198,8.9,15.2,85,0.00,,---,0.00,VWS V14.01,2013-08-31 14:50:00,
2013-08-31 10:55:00,72.9,72.9,29.77,SSW,207,8.9,13.4,100,0.00,,---,0.00,VWS V14.01,2013-08-31 14:55:00,
2013-08-31 11:00:00,76.8,72.0,29.77,SSW,200,4.9,11.2,85,0.00,,---,0.00,VWS V14.01,2013-08-31 15:00:00,
2013-08-31 11:05:00,76.8,72.0,29.77,SSW,204,11.2,13.0,85,0.00,,---,0.00,VWS V14.01,2013-08-31 15:05:00,
2013-08-31 11:10:00,73.8,73.2,29.77,SW,214,7.6,14.8,98,0.00,,---,0.00,VWS V14.01,2013-08-31 15:10:00,
2013-08-31 11:15:00,76.6,72.5,29.77,SSW,198,6.7,10.3,87,0.00,,---,0.00,VWS V14.01,2013-08-31 15:15:00,
2013-08-31 11:20:00,76.6,71.8,29.77,South,177,5.4,10.7,85,0.00,,---,0.00,VWS V14.01,2013-08-31 15:20:00,
2013-08-31 11:25:00,73.0,73.1,29.77,SSW,208,7.6,12.1,100,0.00,,---,0.00,VWS V14.01,2013-08-31 15:25:00,
2013-08-31 11:30:00,77.5,72.3,29.77,SSW,195,8.1,11.6,84,0.00,,---,0.00,VWS V14.01,2013-08-31 15:30:00,
2013-08-31 11:35:00,77.5,72.3,29.77,SSW,197,8.1,10.3,84,0.00,,---,0.00,VWS V14.01,2013-08-31 15:35:00,
2013-08-31 11:40:00,77.7,72.8,29.77,South,191,6.3,10.7,85,0.00,,---,0.00,VWS V14.01,2013-08-31 15:40:00,
2013-08-31 11:45:00,77.0,71.8,29.77,SSW,205,7.2,11.2,84,0.00,,---,0.00,VWS V14.01,2013-08-31 15:45:00,
2013-08-31 11:50:00,76.6,71.8,29.77,SSW,195,9.4,13.0,85,0.00,,---,0.00,VWS V14.01,2013-08-31 15:50:00,
2013-08-31 11:55:00,76.3,71.8,29.77,SW,214,9.8,12.1,86,0.00,,---,0.00,VWS V14.01,2013-08-31 15:55:00,
2013-08-31 12:00:00,76.3,71.4,29.77,SSW,209,8.9,11.6,85,0.00,,---,0.00,VWS V14.01,2013-08-31 16:00:00,
2013-08-31 12:05:00,76.1,71.9,29.77,SW,216,9.8,9.8,87,0.00,,---,0.00,VWS V14.01,2013-08-31 16:05:00,
2013-08-31 12:10:00,75.9,72.1,29.77,SSW,208,7.2,12.5,88,0.00,,---,0.00,VWS V14.01,2013-08-31 16:10:00,
2013-08-31 12:15:00,77.0,71.8,29.77,SW,226,11.2,13.0,84,0.00,,---,0.00,VWS V14.01,2013-08-31 16:15:00,
2013-08-31 12:20:00,77.2,70.9,29.77,SW,222,10.3,13.0,81,0.00,,---,0.00,VWS V14.01,2013-08-31 16:20:00,
2013-08-31 12:25:00,77.0,70.4,29.77,WSW,249,5.4,12.1,80,0.00,,---,0.00,VWS V14.01,2013-08-31 16:25:00,
2013-08-31 12:30:00,77.2,70.5,29.77,SW,218,8.1,8.5,80,0.00,,---,0.00,VWS V14.01,2013-08-31 16:30:00,
2013-08-31 12:35:00,77.2,70.5,29.77,WSW,254,4.5,9.8,80,0.00,,---,0.00,VWS V14.01,2013-08-31 16:35:00,
2013-08-31 12:40:00,77.7,72.8,29.77,South,191,6.3,10.7,85,0.00,,---,0.00,VWS V14.01,2013-08-31 16:40:00,
2013-08-31 12:45:00,77.2,70.5,29.77,WSW,246,0.0,4.9,80,0.00,,---,0.00,VWS V14.01,2013-08-31 16:45:00,
2013-08-31 12:50:00,77.2,70.9,29.77,SW,233,8.5,9.4,81,0.00,,---,0.00,VWS V14.01,2013-08-31 16:50:00,
2013-08-31 12:55:00,76.5,72.3,29.77,SSW,204,7.6,10.3,87,0.00,,---,0.00,VWS V14.01,2013-08-31 16:55:00,
2013-08-31 13:00:00,77.4,70.0,29.77,WSW,240,3.1,6.7,78,0.00,,---,0.00,VWS V14.01,2013-08-31 17:00:00,
2013-08-31 13:05:00,77.5,70.9,29.77,SW,229,3.1,5.8,80,0.00,,---,0.00,VWS V14.01,2013-08-31 17:05:00,
2013-08-31 13:10:00,76.3,71.1,29.77,SW,222,4.9,13.4,84,0.00,,---,0.00,VWS V14.01,2013-08-31 17:10:00,
2013-08-31 13:15:00,77.5,70.9,29.77,SSW,211,4.0,7.2,80,0.00,,---,0.00,VWS V14.01,2013-08-31 17:15:00,
2013-08-31 13:20:00,77.0,71.1,29.77,SW,223,4.5,7.6,82,0.00,,---,0.00,VWS V14.01,2013-08-31 17:20:00,
2013-08-31 13:25:00,77.0,70.4,29.77,WSW,249,5.4,12.1,80,0.00,,---,0.00,VWS V14.01,2013-08-31 17:25:00,
2013-08-31 13:30:00,77.2,70.5,29.77,SW,218,8.1,8.5,80,0.00,,---,0.00,VWS V14.01,2013-08-31 17:30:00,
2013-08-31 13:35:00,77.2,70.5,29.77,WSW,254,4.5,9.8,80,0.00,,---,0.00,VWS V14.01,2013-08-31 17:35:00,
2013-08-31 13:40:00,77.2,70.5,29.77,WSW,253,1.8,4.5,80,0.00,,---,0.00,VWS V14.01,2013-08-31 17:40:00,
2013-08-31 13:45:00,77.2,70.5,29.77,WSW,246,0.0,4.9,80,0.00,,---,0.00,VWS V14.01,2013-08-31 17:45:00,
2013-08-31 13:50:00,77.2,70.9,29.77,SW,233,8.5,9.4,81,0.00,,---,0.00,VWS V14.01,2013-08-31 17:50:00,
2013-08-31 13:55:00,77.2,70.5,29.77,WSW,243,3.6,8.5,80,0.00,,---,0.00,VWS V14.01,2013-08-31 17:55:00,
2013-08-31 14:00:00,77.4,70.0,29.77,WSW,240,3.1,6.7,78,0.00,,---,0.00,VWS V14.01,2013-08-31 18:00:00,
2013-08-31 14:05:00,77.5,70.9,29.77,SW,229,3.1,5.8,80,0.00,,---,0.00,VWS V14.01,2013-08-31 18:05:00,
2013-08-31 14:10:00,77.7,71.1,29.77,SW,214,4.9,5.8,80,0.00,,---,0.00,VWS V14.01,2013-08-31 18:10:00,
2013-08-31 14:15:00,77.5,70.9,29.77,SSW,211,4.0,7.2,80,0.00,,---,0.00,VWS V14.01,2013-08-31 18:15:00,
2013-08-31 14:20:00,77.0,71.1,29.77,SW,223,4.5,7.6,82,0.00,,---,0.00,VWS V14.01,2013-08-31 18:20:00,
2013-08-31 14:25:00,76.5,70.6,29.77,SW,223,0.0,5.8,82,0.00,,---,0.00,VWS V14.01,2013-08-31 18:25:00,
2013-08-31 14:30:00,77.0,71.4,29.74,SW,232,5.4,6.7,83,0.00,,---,0.00,VWS V14.01,2013-08-31 18:30:00,
2013-08-31 14:35:00,77.4,71.1,29.74,SW,232,0.0,6.3,81,0.00,,---,0.00,VWS V14.01,2013-08-31 18:35:00,
2013-08-31 14:40:00,78.4,72.1,29.74,SW,235,0.0,5.4,81,0.00,,---,0.00,VWS V14.01,2013-08-31 18:40:00,
2013-08-31 14:45:00,79.7,73.0,29.74,West,276,4.5,5.8,80,0.00,,---,0.00,VWS V14.01,2013-08-31 18:45:00,
2013-08-31 14:50:00,80.1,71.4,29.74,West,276,4.9,6.3,75,0.00,,---,0.00,VWS V14.01,2013-08-31 18:50:00,
2013-08-31 14:55:00,79.7,70.7,29.74,West,280,4.5,8.5,74,0.00,,---,0.00,VWS V14.01,2013-08-31 18:55:00,
2013-08-31 15:00:00,79.0,70.4,29.74,West,270,3.1,9.8,75,0.00,,---,0.00,VWS V14.01,2013-08-31 19:00:00,
2013-08-31 15:05:00,79.5,70.5,29.74,WSW,239,5.8,8.9,74,0.00,,---,0.00,VWS V14.01,2013-08-31 19:05:00,
2013-08-31 15:10:00,81.5,72.4,29.74,West,260,3.1,7.6,74,0.00,,---,0.00,VWS V14.01,2013-08-31 19:10:00,
2013-08-31 15:15:00,82.8,72.0,29.74,SW,228,6.3,8.5,70,0.00,,---,0.00,VWS V14.01,2013-08-31 19:15:00,
2013-08-31 15:20:00,83.5,72.2,29.74,WNW,295,5.4,10.7,69,0.00,,---,0.00,VWS V14.01,2013-08-31 19:20:00,
2013-08-31 15:25:00,84.0,71.4,29.74,West,264,3.6,9.4,66,0.00,,---,0.00,VWS V14.01,2013-08-31 19:25:00,
2013-08-31 15:30:00,82.4,71.2,29.74,West,259,5.8,8.9,69,0.00,,---,0.00,VWS V14.01,2013-08-31 19:30:00,
2013-08-31 15:35:00,83.3,72.1,29.74,SW,235,4.9,8.5,69,0.00,,---,0.00,VWS V14.01,2013-08-31 19:35:00,
2013-08-31 15:40:00,83.8,70.4,29.74,WNW,287,5.4,12.5,64,0.00,,---,0.00,VWS V14.01,2013-08-31 19:40:00,
2013-08-31 15:45:00,83.5,69.6,29.74,WNW,292,7.2,16.1,63,0.00,,---,0.00,VWS V14.01,2013-08-31 19:45:00,
2013-08-31 15:50:00,83.8,70.4,29.74,NW,309,4.5,12.5,64,0.00,,---,0.00,VWS V14.01,2013-08-31 19:50:00,
2013-08-31 15:55:00,84.7,69.8,29.74,West,263,6.3,8.9,61,0.00,,---,0.00,VWS V14.01,2013-08-31 19:55:00,
2013-08-31 16:00:00,83.1,69.2,29.74,NNW,336,10.7,13.4,63,0.00,,---,0.00,VWS V14.01,2013-08-31 20:00:00,
2013-08-31 16:05:00,82.4,69.9,29.74,West,281,0.0,14.3,66,0.00,,---,0.00,VWS V14.01,2013-08-31 20:05:00,
2013-08-31 16:10:00,81.0,69.4,29.74,West,271,7.2,15.7,68,0.00,,---,0.00,VWS V14.01,2013-08-31 20:10:00,
2013-08-31 16:15:00,80.6,69.5,29.74,NW,318,14.3,15.7,69,0.00,,---,0.00,VWS V14.01,2013-08-31 20:15:00,
2013-08-31 16:20:00,79.9,69.2,29.74,WNW,295,4.5,14.3,70,0.00,,---,0.00,VWS V14.01,2013-08-31 20:20:00,
2013-08-31 16:25:00,82.4,71.2,29.74,North,356,6.3,8.9,69,0.00,,---,0.00,VWS V14.01,2013-08-31 20:25:00,
2013-08-31 16:30:00,82.4,71.2,29.74,North,353,4.9,8.9,69,0.00,,---,0.00,VWS V14.01,2013-08-31 20:30:00,
2013-08-31 16:35:00,82.9,71.7,29.74,North,360,5.4,8.5,69,0.00,,---,0.00,VWS V14.01,2013-08-31 20:35:00,
2013-08-31 16:40:00,83.1,70.1,29.74,NW,326,2.7,8.1,65,0.00,,---,0.00,VWS V14.01,2013-08-31 20:40:00,
2013-08-31 16:45:00,82.8,69.8,29.74,NNW,328,6.3,6.3,65,0.00,,---,0.00,VWS V14.01,2013-08-31 20:45:00,
2013-08-31 16:50:00,82.0,70.9,29.74,NW,309,1.8,8.1,69,0.00,,---,0.00,VWS V14.01,2013-08-31 20:50:00,
2013-08-31 16:55:00,82.2,71.0,29.74,NW,321,7.6,8.9,69,0.00,,---,0.00,VWS V14.01,2013-08-31 20:55:00,
2013-08-31 17:00:00,81.9,70.7,29.74,North,349,8.5,10.3,69,0.00,,---,0.00,VWS V14.01,2013-08-31 21:00:00,
2013-08-31 17:05:00,81.1,70.4,29.74,North,360,2.7,10.3,70,0.00,,---,0.00,VWS V14.01,2013-08-31 21:05:00,
2013-08-31 17:10:00,81.7,71.4,29.74,North,359,2.7,8.9,71,0.00,,---,0.00,VWS V14.01,2013-08-31 21:10:00,
2013-08-31 17:15:00,81.9,70.7,29.74,NNW,335,9.8,10.3,69,0.00,,---,0.00,VWS V14.01,2013-08-31 21:15:00,
2013-08-31 17:20:00,80.6,69.9,29.74,NW,308,6.3,9.8,70,0.00,,---,0.00,VWS V14.01,2013-08-31 21:20:00,
2013-08-31 17:25:00,79.9,70.1,29.74,WNW,294,4.9,8.1,72,0.00,,---,0.00,VWS V14.01,2013-08-31 21:25:00,
2013-08-31 17:30:00,79.7,70.3,29.74,North,359,4.5,8.5,73,0.00,,---,0.00,VWS V14.01,2013-08-31 21:30:00,
2013-08-31 17:35:00,82.9,71.7,29.74,North,360,5.4,8.5,69,0.00,,---,0.00,VWS V14.01,2013-08-31 21:35:00,
2013-08-31 17:40:00,78.4,70.2,29.74,North,360,5.8,7.6,76,0.00,,---,0.00,VWS V14.01,2013-08-31 21:40:00,
2013-08-31 17:45:00,78.8,69.8,29.74,North,2,8.1,10.7,74,0.00,,---,0.00,VWS V14.01,2013-08-31 21:45:00,
2013-08-31 17:50:00,79.3,70.7,29.74,North,8,8.9,11.2,75,0.00,,---,0.00,VWS V14.01,2013-08-31 21:50:00,
2013-08-31 17:55:00,78.8,69.8,29.74,North,349,7.6,11.6,74,0.00,,---,0.00,VWS V14.01,2013-08-31 21:55:00,
2013-08-31 18:00:00,78.8,70.2,29.74,NNW,346,5.8,8.1,75,0.00,,---,0.00,VWS V14.01,2013-08-31 22:00:00,
2013-08-31 18:05:00,79.3,70.7,29.74,NNW,342,8.5,8.5,75,0.00,,---,0.00,VWS V14.01,2013-08-31 22:05:00,
2013-08-31 18:10:00,79.3,69.9,29.74,NW,319,7.2,12.5,73,0.00,,---,0.00,VWS V14.01,2013-08-31 22:10:00,
2013-08-31 18:15:00,79.3,70.3,29.74,North,359,5.8,13.0,74,0.00,,---,0.00,VWS V14.01,2013-08-31 22:15:00,
2013-08-31 18:20:00,79.3,69.5,29.74,NNW,339,8.5,11.2,72,0.00,,---,0.00,VWS V14.01,2013-08-31 22:20:00,
2013-08-31 18:25:00,78.4,69.1,29.74,NNW,336,6.7,10.7,73,0.00,,---,0.00,VWS V14.01,2013-08-31 22:25:00,
2013-08-31 18:30:00,77.7,69.9,29.74,North,360,7.6,11.2,77,0.00,,---,0.00,VWS V14.01,2013-08-31 22:30:00,
2013-08-31 18:35:00,77.2,69.0,29.74,North,350,4.5,9.4,76,0.00,,---,0.00,VWS V14.01,2013-08-31 22:35:00,
2013-08-31 18:40:00,77.0,70.0,29.74,North,357,6.7,7.6,79,0.00,,---,0.00,VWS V14.01,2013-08-31 22:40:00,
2013-08-31 18:45:00,76.3,69.3,29.77,West,274,5.8,7.6,79,0.00,,---,0.00,VWS V14.01,2013-08-31 22:45:00,
2013-08-31 18:50:00,75.6,68.6,29.77,North,2,11.2,12.1,79,0.00,,---,0.00,VWS V14.01,2013-08-31 22:50:00,
2013-08-31 18:55:00,75.0,68.8,29.77,North,354,3.6,11.2,81,0.00,,---,0.00,VWS V14.01,2013-08-31 22:55:00,
2013-08-31 19:00:00,74.8,69.0,29.74,North,359,5.8,6.3,82,0.00,,---,0.00,VWS V14.01,2013-08-31 23:00:00,
2013-08-31 19:05:00,74.5,68.6,29.74,North,359,4.0,7.2,82,0.00,,---,0.00,VWS V14.01,2013-08-31 23:05:00,
2013-08-31 19:10:00,74.3,69.2,29.74,North,359,0.0,4.5,84,0.00,,---,0.00,VWS V14.01,2013-08-31 23:10:00,
2013-08-31 19:15:00,74.1,69.0,29.77,North,352,0.0,5.8,84,0.00,,---,0.00,VWS V14.01,2013-08-31 23:15:00,
2013-08-31 19:20:00,73.9,69.2,29.77,North,359,4.9,5.4,85,0.00,,---,0.00,VWS V14.01,2013-08-31 23:20:00,
2013-08-31 19:25:00,73.6,68.8,29.77,NNW,329,3.1,6.3,85,0.00,,---,0.00,VWS V14.01,2013-08-31 23:25:00,
2013-08-31 19:30:00,73.4,69.0,29.77,NNW,346,4.9,4.9,86,0.00,,---,0.00,VWS V14.01,2013-08-31 23:30:00,
2013-08-31 19:35:00,73.2,68.8,29.77,NNW,347,4.9,6.7,86,0.00,,---,0.00,VWS V14.01,2013-08-31 23:35:00,
2013-08-31 19:40:00,72.9,68.4,29.77,North,359,1.3,6.3,86,0.00,,---,0.00,VWS V14.01,2013-08-31 23:40:00,
2013-08-31 19:45:00,72.3,68.6,29.77,North,359,0.0,4.9,88,0.00,,---,0.00,VWS V14.01,2013-08-31 23:45:00,
2013-08-31 19:50:00,71.4,68.3,29.77,North,1,3.1,5.4,90,0.00,,---,0.00,VWS V14.01,2013-08-31 23:50:00,
2013-08-31 19:55:00,70.7,68.9,29.77,North,2,0.0,3.1,94,0.00,,---,0.00,VWS V14.01,2013-08-31 23:55:00,
2013-08-31 20:00:00,70.3,70.3,29.77,North,2,0.0,0.0,100,0.00,,---,0.00,VWS V14.01,2013-09-01 00:00:00,
2013-08-31 20:05:00,70.2,70.2,29.77,North,1,2.7,3.6,100,0.00,,---,0.00,VWS V14.01,2013-09-01 00:05:00,
2013-08-31 20:10:00,70.2,70.2,29.77,North,360,3.1,4.5,100,0.00,,---,0.00,VWS V14.01,2013-09-01 00:10:00,
2013-08-31 20:15:00,70.0,70.0,29.77,NNW,345,4.9,6.7,100,0.00,,---,0.00,VWS V14.01,2013-09-01 00:15:00,
2013-08-31 20:20:00,70.0,70.0,29.77,NW,322,7.6,7.6,100,0.00,,---,0.00,VWS V14.01,2013-09-01 00:20:00,
2013-08-31 20:25:00,70.0,70.0,29.77,NNW,338,3.1,7.6,100,0.00,,---,0.00,VWS V14.01,2013-09-01 00:25:00,
2013-08-31 20:30:00,69.6,69.6,29.77,NNW,336,2.2,4.9,100,0.00,,---,0.00,VWS V14.01,2013-09-01 00:30:00,
2013-08-31 20:35:00,69.4,69.4,29.77,NNW,336,3.1,3.6,100,0.00,,---,0.00,VWS V14.01,2013-09-01 00:35:00,
2013-08-31 20:40:00,69.3,69.3,29.77,NNW,340,2.2,4.5,100,0.00,,---,0.00,VWS V14.01,2013-09-01 00:40:00,
2013-08-31 20:45:00,68.5,68.5,29.77,NNW,340,0.0,3.6,100,0.00,,---,0.00,VWS V14.01,2013-09-01 00:45:00,
2013-08-31 20:50:00,68.4,68.4,29.77,NNW,340,0.0,0.0,100,0.00,,---,0.00,VWS V14.01,2013-09-01 00:50:00,
2013-08-31 20:55:00,68.0,68.0,29.77,NNW,338,0.0,0.0,100,0.00,,---,0.00,VWS V14.01,2013-09-01 00:55:00,
2013-08-31 21:00:00,67.1,67.1,29.80,NNW,340,0.0,0.0,100,0.00,,---,0.00,VWS V14.01,2013-09-01 01:00:00,
2013-08-31 21:05:00,70.2,70.2,29.77,North,1,2.7,3.6,100,0.00,,---,0.00,VWS V14.01,2013-09-01 01:05:00,
2013-08-31 21:10:00,67.6,67.6,29.80,NW,311,5.4,6.7,100,0.00,,---,0.00,VWS V14.01,2013-09-01 01:10:00,
2013-08-31 21:15:00,70.0,70.0,29.77,NNW,345,4.9,6.7,100,0.00,,---,0.00,VWS V14.01,2013-09-01 01:15:00,
2013-08-31 21:20:00,67.8,67.8,29.80,NW,312,0.0,4.0,100,0.00,,---,0.00,VWS V14.01,2013-09-01 01:20:00,
2013-08-31 21:25:00,67.6,67.6,29.80,NW,312,0.0,0.0,100,0.00,,---,0.00,VWS V14.01,2013-09-01 01:25:00,
2013-08-31 21:30:00,69.6,69.6,29.77,NNW,336,2.2,4.9,100,0.00,,---,0.00,VWS V14.01,2013-09-01 01:30:00,
2013-08-31 21:35:00,67.3,67.3,29.83,NW,312,0.0,0.0,100,0.00,,---,0.00,VWS V14.01,2013-09-01 01:35:00,
2013-08-31 21:40:00,67.5,67.5,29.83,NW,312,0.0,0.0,100,0.00,,---,0.00,VWS V14.01,2013-09-01 01:40:00,
2013-08-31 21:45:00,68.5,68.6,29.77,NNW,340,0.0,3.6,100,0.00,,---,0.00,VWS V14.01,2013-09-01 01:45:00,
2013-08-31 21:50:00,67.8,67.8,29.83,NW,314,2.2,4.0,100,0.00,,---,0.00,VWS V14.01,2013-09-01 01:50:00,
2013-08-31 21:55:00,68.0,68.0,29.83,NW,314,2.2,3.6,100,0.00,,---,0.00,VWS V14.01,2013-09-01 01:55:00,
2013-08-31 22:00:00,68.0,68.0,29.83,NNW,328,0.0,4.5,100,0.00,,---,0.00,VWS V14.01,2013-09-01 02:00:00,
2013-08-31 22:05:00,67.1,67.1,29.80,NNW,340,4.0,4.0,100,0.00,,---,0.00,VWS V14.01,2013-09-01 02:05:00,
2013-08-31 22:10:00,67.8,67.8,29.83,NNW,330,0.0,0.0,100,0.00,,---,0.00,VWS V14.01,2013-09-01 02:10:00,
2013-08-31 22:15:00,67.5,67.5,29.83,NNW,330,0.0,0.0,100,0.00,,---,0.00,VWS V14.01,2013-09-01 02:15:00,
2013-08-31 22:20:00,67.8,67.8,29.80,NW,312,0.0,4.0,100,0.00,,---,0.00,VWS V14.01,2013-09-01 02:20:00,
2013-08-31 22:25:00,66.7,66.7,29.83,NNW,330,0.0,0.0,100,0.00,,---,0.00,VWS V14.01,2013-09-01 02:25:00,
2013-08-31 22:30:00,66.7,66.7,29.83,NNW,330,0.0,0.0,100,0.00,,---,0.00,VWS V14.01,2013-09-01 02:30:00,
2013-08-31 22:35:00,67.3,67.3,29.83,NW,312,0.0,0.0,100,0.00,,---,0.00,VWS V14.01,2013-09-01 02:35:00,
2013-08-31 22:40:00,67.1,67.1,29.83,NNW,328,0.0,0.0,100,0.00,,---,0.00,VWS V14.01,2013-09-01 02:40:00,
2013-08-31 22:45:00,66.9,66.9,29.83,NNW,329,0.0,0.0,100,0.00,,---,0.00,VWS V14.01,2013-09-01 02:45:00,
2013-08-31 22:50:00,67.8,67.8,29.83,NW,314,2.2,4.0,100,0.00,,---,0.00,VWS V14.01,2013-09-01 02:50:00,
2013-08-31 22:55:00,66.4,66.4,29.83,NNW,335,0.0,0.0,100,0.00,,---,0.00,VWS V14.01,2013-09-01 02:55:00,
2013-08-31 23:00:00,66.4,66.4,29.83,NNW,329,0.0,0.0,100,0.00,,---,0.00,VWS V14.01,2013-09-01 03:00:00,
2013-08-31 23:05:00,66.2,66.2,29.83,NNW,329,0.0,0.0,100,0.00,,---,0.00,VWS V14.01,2013-09-01 03:05:00,
2013-08-31 23:10:00,67.8,67.8,29.83,NNW,330,0.0,0.0,100,0.00,,---,0.00,VWS V14.01,2013-09-01 03:10:00,
2013-08-31 23:15:00,65.8,65.8,29.83,NNW,329,0.0,0.0,100,0.00,,---,0.00,VWS V14.01,2013-09-01 03:15:00,
2013-08-31 23:20:00,66.9,66.9,29.83,NNW,330,0.0,0.0,100,0.00,,---,0.00,VWS V14.01,2013-09-01 03:20:00,
2013-08-31 23:25:00,65.8,65.8,29.83,NNW,329,0.0,0.0,100,0.00,,---,0.00,VWS V14.01,2013-09-01 03:25:00,
2013-08-31 23:30:00,65.8,65.8,29.83,NNW,329,0.0,0.0,100,0.00,,---,0.00,VWS V14.01,2013-09-01 03:30:00,
2013-08-31 23:35:00,66.7,66.7,29.83,NNW,329,0.0,0.0,100,0.00,,---,0.00,VWS V14.01,2013-09-01 03:35:00,
2013-08-31 23:40:00,65.8,65.8,29.83,NNW,329,1.3,3.6,100,0.00,,---,0.00,VWS V14.01,2013-09-01 03:40:00,
2013-08-31 23:45:00,65.8,65.8,29.83,NNW,329,0.0,3.1,100,0.00,,---,0.00,VWS V14.01,2013-09-01 03:45:00,
2013-08-31 23:50:00,65.8,65.8,29.83,NNW,329,0.0,0.0,100,0.00,,---,0.00,VWS V14.01,2013-09-01 03:50:00,
2013-08-31 23:55:00,66.4,66.4,29.83,NNW,335,0.0,0.0,100,0.00,,---,0.00,VWS V14.01,2013-09-01 03:55:00,